[[{"header":{"parameterUnit":"m.s-1","parameterCategory":1,"la1":30.2992,"la2":30.254,"lo1":-89.0895,"lo2":-89.0443,"dy":0.0025,"dx":0.0025,"nx":19,"ny":19,"refTime":"2026-04-07T21:00:00:Z","depth":0,"parameterNumber":2,"parameterNumberName":"U-component_of_WINDS"},"data":[0,0,0,-3.2672,-3.2676,-3.2824,-3.2824,-3.3015,-3.3016,0,0,0,0,0,0,0,0,0,0,0,-3.2628,-3.263,-3.2672,-3.2676,-3.2824,-3.2824,-3.3014,-3.3016,0,0,0,0,0,0,0,0,0,0,0,-3.2628,-3.2629,-3.2631,-3.2676,-3.2823,-3.2824,-3.3014,-3.2902,0,0,0,0,0,0,0,0,0,0,-3.2758,-3.2717,-3.2629,-3.2631,-3.2677,-3.2823,-3.2824,-3.2897,-3.2909,-3.2948,0,-3.2982,0,-3.3002,-3.3029,-3.303,0,0,0,-3.2676,-3.2707,-3.2747,-3.2631,-3.2679,-3.2823,-3.2757,-3.2904,-3.2918,-3.2964,-3.2984,-3.2992,-3.3005,-3.303,-3.3031,-3.3253,-3.3254,0,0,-3.2668,-3.2655,-3.2737,-3.2756,-3.2732,-3.2752,-3.2762,-3.2912,-3.2933,-3.2985,-3.2996,-3.3008,-3.3032,-3.3033,-3.3252,-3.3254,0,0,0,-3.2644,-3.2649,-3.2686,-3.2748,-3.2775,-3.2757,-3.2767,-3.2927,-3.294,-3.2998,-3.3011,-3.3033,-3.3035,-3.3251,-3.3253,-3.329,0,0,0,-3.2639,-3.2636,-3.2682,-3.2676,-3.2772,-3.2852,-3.2778,-3.2929,-3.2947,-3.301,-3.3033,-3.3037,-3.325,-3.3252,-3.3287,-3.331,0,0,0,-3.2619,-3.2633,-3.2654,-3.2675,-3.2738,-3.285,-3.2872,-3.2933,-3.2954,-3.303,-3.3038,-3.3249,-3.3252,-3.3284,-3.3305,-3.3364,0,0,0,-3.2593,-3.2686,-3.2655,-3.2763,-3.2736,-3.2872,-3.2871,-3.2973,-3.3042,-3.3034,-3.325,-3.3253,-3.3283,-3.3302,-3.3361,-3.3411,-3.3431,0,0,-3.2702,-3.2698,-3.2763,-3.274,-3.2878,-3.2851,-3.2995,-3.3071,-3.309,-3.3198,-3.3204,-3.3288,-3.3304,-3.3363,-3.3549,-3.3564,0,0,0,-3.2793,-3.284,-3.2879,-3.2944,-3.3005,-3.3059,-3.3114,-3.3143,-3.3235,-3.3143,-3.3326,-3.3337,-3.3372,-3.3396,-3.341,-3.3441,-3.3264,-3.3263,-3.3263,-3.2929,-3.2949,-3.3057,-3.3096,-3.3159,-3.3216,-3.327,-3.3318,-3.332,-3.3363,-3.3395,-3.3505,-3.3533,-3.3543,-3.3575,-3.3424,-3.3424,-3.3424,-3.3424,-3.309,-3.3158,-3.316,-3.3265,-3.3286,-3.3376,-3.3435,-3.3433,-3.352,-3.3482,-3.3514,-3.347,-3.356,-3.3589,-3.3427,-3.3427,-3.3426,-3.3426,-3.3426,-3.318,-3.3216,-3.3249,-3.3347,-3.342,-3.3456,-3.354,-3.3557,-3.3573,-3.3605,-3.364,-3.364,-3.3641,-3.3621,-3.3621,-3.3621,-3.3622,-3.3622,-3.3622,-3.3259,-3.3296,-3.3363,-3.3436,-3.3481,-3.3542,-3.3602,-3.3647,-3.3701,-3.3707,-3.3707,-3.3704,-3.3565,-3.3529,-3.3628,-3.3627,-3.3626,-3.3626,-3.3625,-3.3413,-3.3382,-3.3486,-3.3531,-3.3619,-3.3691,-3.3712,-3.3802,-3.3842,-3.3883,-3.3875,-3.3769,-3.3765,-3.3755,-3.3725,-3.387,-3.387,-3.387,-3.387,-3.3488,-3.3489,-3.36,-3.3671,-3.3742,-3.3772,-3.3891,-3.394,-3.3984,-3.4011,-3.3993,-3.3955,-3.3944,-3.3947,-3.3933,-3.3905,-3.4092,-3.4093,-3.4093,-3.3584,-3.3593,-3.369,-3.3733,-3.3803,-3.3863,-3.3976,-3.4058,-3.4103,-3.4102,-3.4032,-3.4022,-3.3962,-3.3941,-3.3937,-3.3914,-3.3864,0,0]},{"header":{"parameterUnit":"m.s-1","parameterCategory":1,"la1":30.2992,"la2":30.254,"lo1":-89.0895,"lo2":-89.0443,"dy":0.0025,"dx":0.0025,"nx":19,"ny":19,"refTime":"2026-04-07T21:00:00:Z","depth":0,"parameterNumber":3,"parameterNumberName":"V-component_of_WINDS"},"data":[0,0,0,-1.3545,-1.3548,-1.3698,-1.3698,-1.3866,-1.3867,0,0,0,0,0,0,0,0,0,0,0,-1.3487,-1.3488,-1.3545,-1.3549,-1.3697,-1.3698,-1.3865,-1.3867,0,0,0,0,0,0,0,0,0,0,0,-1.3487,-1.3488,-1.3489,-1.3549,-1.3697,-1.3698,-1.3865,-1.3761,0,0,0,0,0,0,0,0,0,0,-1.362,-1.3553,-1.3488,-1.3489,-1.355,-1.3697,-1.3698,-1.3756,-1.3767,-1.3788,0,-1.3803,0,-1.3838,-1.3877,-1.3877,0,0,0,-1.3559,-1.3544,-1.3596,-1.3489,-1.3551,-1.3697,-1.3633,-1.3763,-1.3775,-1.3803,-1.3806,-1.3813,-1.384,-1.3878,-1.3878,-1.3965,-1.3965,0,0,-1.355,-1.3507,-1.3588,-1.3604,-1.358,-1.3628,-1.3638,-1.3771,-1.3771,-1.3807,-1.3817,-1.3843,-1.3879,-1.388,-1.3965,-1.3965,0,0,0,-1.352,-1.3501,-1.3551,-1.3596,-1.3625,-1.3632,-1.3643,-1.3765,-1.3785,-1.3819,-1.3845,-1.3879,-1.3881,-1.3966,-1.3965,-1.3919,0,0,0,-1.3515,-1.3483,-1.3546,-1.3521,-1.3622,-1.3697,-1.3634,-1.3776,-1.3792,-1.3844,-1.3879,-1.3883,-1.3966,-1.3965,-1.3921,-1.3905,0,0,0,-1.3482,-1.3479,-1.3496,-1.3519,-1.3581,-1.3696,-1.3724,-1.3781,-1.3808,-1.3877,-1.3883,-1.3966,-1.3965,-1.3922,-1.3907,-1.3915,0,0,0,-1.3435,-1.3454,-1.3495,-1.3526,-1.358,-1.3666,-1.3724,-1.3791,-1.3845,-1.388,-1.3966,-1.3965,-1.3923,-1.3909,-1.3916,-1.3913,-1.3908,0,0,-1.3434,-1.3452,-1.3474,-1.3515,-1.3583,-1.3647,-1.3709,-1.38,-1.3846,-1.3923,-1.3926,-1.392,-1.3907,-1.3915,-1.3894,-1.3889,0,0,0,-1.3459,-1.3474,-1.3502,-1.3551,-1.3621,-1.3679,-1.3765,-1.3798,-1.3866,-1.3877,-1.3927,-1.392,-1.3926,-1.3927,-1.3923,-1.3931,-1.3964,-1.3964,-1.3964,-1.3396,-1.3454,-1.3494,-1.3569,-1.3617,-1.3705,-1.3748,-1.3808,-1.3854,-1.3864,-1.3887,-1.3867,-1.3866,-1.3864,-1.3871,-1.3891,-1.389,-1.389,-1.389,-1.34,-1.3431,-1.349,-1.3549,-1.361,-1.3661,-1.3746,-1.3776,-1.3831,-1.3855,-1.3863,-1.3883,-1.3857,-1.3866,-1.3887,-1.3888,-1.3888,-1.3888,-1.3889,-1.3365,-1.339,-1.343,-1.3508,-1.356,-1.3636,-1.3687,-1.3741,-1.3792,-1.38,-1.383,-1.3831,-1.3838,-1.381,-1.381,-1.381,-1.381,-1.381,-1.381,-1.3313,-1.336,-1.3396,-1.3471,-1.351,-1.3567,-1.3655,-1.3694,-1.3751,-1.3787,-1.3787,-1.383,-1.3844,-1.3846,-1.3809,-1.3809,-1.381,-1.381,-1.381,-1.3296,-1.3308,-1.3363,-1.3402,-1.3494,-1.3542,-1.361,-1.3685,-1.3725,-1.3748,-1.379,-1.3791,-1.3813,-1.3816,-1.3818,-1.3778,-1.3778,-1.3778,-1.3778,-1.3266,-1.3282,-1.3351,-1.3408,-1.3471,-1.3538,-1.3598,-1.3666,-1.3738,-1.3766,-1.378,-1.3787,-1.3788,-1.381,-1.3814,-1.3816,-1.3776,-1.3776,-1.3776,-1.3258,-1.3283,-1.3324,-1.3395,-1.347,-1.3534,-1.3592,-1.3655,-1.374,-1.3777,-1.379,-1.379,-1.3802,-1.3803,-1.384,-1.3845,-1.3851,0,0]}]]